Home   Weather   Catania   Past weeks

Flag for Italy Past Weather in Catania, Italy — Yesterday and Last 2 Weeks

Now
55 °F

Passing clouds.


Feels Like: 51 °F
Forecast: 51 / 56 °F
Wind: 18 mph from East

Location: Catania / Fontanarossa

Current Time: Jan 21, 2017 at 3:17:27 am

Latest Report: Jan 21, 2017 at 2:50 am


Visibility: N/A

Pressure: 30.21 "Hg

Humidity: 72%

Dew Point: 46 °F

Location of CataniaLocation

Past Weather in Catania — Graph

°F

Catania Temperature Yesterday

Maximum temperature yesterday: 57 °F (at 12:20 pm)
Minimum temperature yesterday: 34 °F (at 1:20 am)
Average temperature yesterday: 47 °F

High & Low Weather Summary for the Past Weeks

 TemperatureHumidityPressure
High61 °F (Jan 13, 1:50 pm)100% (Jan 11, 1:50 am)30.30 "Hg (Jan 11, 1:50 am)
Low30 °F (Jan 10, 2:20 am)25% (Jan 8, 12:20 pm)29.62 "Hg (Jan 16, 12:20 pm)
Average43 °F71%29.96 "Hg
* Reported Jan 6 2:20 am — Jan 21 2:20 am, Catania, Weather by CustomWeather, © 2017

Note: Actual official high and low records may vary slightly from our data, if they occured in-between our weather recording intervals... More about our weather records

Advertising

Catania Weather History for the Previous 24 Hours

Scroll right to see more
 ConditionsComfort  
Time TempWeatherWind HumidityBarometerVisibility
2:20 am
Sat, Jan 21
55 °FPassing clouds.18 mph72%30.21 "HgN/A
1:20 am55 °FPassing clouds.16 mph72%30.24 "HgN/A
12:50 am54 °FPassing clouds.17 mph72%30.24 "HgN/A
12:20 am55 °FPassing clouds.17 mph67%30.24 "HgN/A
11:50 pm
Fri, Jan 20
55 °FPassing clouds.17 mph67%30.24 "HgN/A
11:20 pm55 °FPassing clouds.15 mph67%30.27 "HgN/A
10:50 pm55 °FPassing clouds.17 mph67%30.27 "HgN/A
10:20 pm55 °FPassing clouds.15 mph67%30.27 "HgN/A
9:50 pm55 °FPassing clouds.16 mph67%30.27 "HgN/A
9:20 pm54 °FPassing clouds.16 mph77%30.27 "HgN/A
8:50 pm54 °FPassing clouds.18 mph77%30.27 "HgN/A
8:20 pm54 °FPassing clouds.18 mph77%30.27 "HgN/A
7:50 pm54 °FPartly cloudy.18 mph77%30.27 "HgN/A
7:20 pm52 °FHeavy rain. Passing clouds.14 mph82%30.27 "Hg1 mi
6:20 pm54 °FPassing clouds.17 mph77%30.24 "HgN/A
5:50 pm54 °FPartly cloudy.17 mph77%30.24 "HgN/A
5:20 pm55 °FPartly cloudy.16 mph72%30.24 "HgN/A
4:20 pm55 °FBroken clouds.17 mph72%30.24 "HgN/A
3:50 pm55 °FScattered clouds.18 mph72%30.24 "HgN/A
3:20 pm55 °FScattered clouds.18 mph72%30.24 "HgN/A
2:20 pm57 °FScattered clouds.18 mph72%30.24 "HgN/A
1:20 pm57 °FPartly sunny.17 mph63%30.24 "HgN/A
12:50 pm57 °FPartly sunny.15 mph63%30.24 "HgN/A
12:20 pm57 °FPartly sunny.14 mph55%30.27 "HgN/A
11:20 am55 °FScattered clouds.12 mph67%30.27 "HgN/A
10:50 am54 °FPassing clouds.3 mph67%30.30 "HgN/A
10:20 am48 °FPassing clouds.2 mph76%30.30 "HgN/A
9:50 am45 °FPassing clouds.5 mph81%30.30 "HgN/A
9:20 am43 °FPassing clouds.5 mph81%30.27 "HgN/A
8:50 am39 °FPassing clouds.6 mph87%30.27 "HgN/A
8:20 am37 °FPassing clouds.5 mph87%30.27 "HgN/A
7:50 am36 °FScattered clouds.5 mph93%30.27 "HgN/A
7:20 am36 °FScattered clouds.5 mph93%30.27 "HgN/A
6:20 am36 °FPassing clouds.7 mph93%30.27 "Hg6 mi
5:50 am34 °FPassing clouds.5 mph93%30.27 "HgN/A
5:20 am36 °FPassing clouds.5 mph87%30.24 "HgN/A
4:20 am36 °FPassing clouds.6 mph93%30.24 "HgN/A
3:50 am36 °FPassing clouds.5 mph93%30.24 "HgN/A
3:20 am36 °FPassing clouds.6 mph93%30.27 "HgN/A
Weather by CustomWeather, © 2017

See weather overviewHow to use our weather pages